<?xml version="1.0" encoding="UTF-8" standalone="no" ?>
<gpx xmlns="http://www.topografix.com/GPX/1/1" xmlns:xsi="http://www.w3.org/2001/XMLSchema-instance" xsi:schemaLocation="http://www.topografix.com/GPX/1/1 http://www.topografix.com/GPX/1/1/gpx.xsd" version="1.1" creator="VisuGPX - https://www.visugpx.com">
  <metadata>
    <name>barreges -col du tourmalet  1h45 12 km  moyenne 6.5 km/h6.5 km/h </name>
    <desc><![CDATA[12 km]]></desc>
  </metadata>
  <trk>
    <name><![CDATA[barreges -col du tourmalet_1]]></name>
    <extensions>
      <line xmlns="http://www.topografix.com/GPX/gpx_style/0/2">
        <color>0000FF</color>
        <width>4</width>
      </line>
    </extensions>
    <trkseg>
      <trkpt lat="42.89617" lon="0.06286">
        <ele>1212.4</ele>
        <time>2024-07-30T22:00:00.000Z</time>
      </trkpt>
      <trkpt lat="42.89624" lon="0.0633">
        <ele>1214.9</ele>
        <time>2024-07-30T22:00:18.718Z</time>
      </trkpt>
      <trkpt lat="42.89629" lon="0.0635">
        <ele>1215.3</ele>
        <time>2024-07-30T22:00:26.175Z</time>
      </trkpt>
      <trkpt lat="42.89757" lon="0.06703">
        <ele>1232.7</ele>
        <time>2024-07-30T22:03:01.628Z</time>
      </trkpt>
      <trkpt lat="42.89766" lon="0.06732">
        <ele>1234.1</ele>
        <time>2024-07-30T22:03:14.073Z</time>
      </trkpt>
      <trkpt lat="42.89773" lon="0.06764">
        <ele>1235.8</ele>
        <time>2024-07-30T22:03:27.664Z</time>
      </trkpt>
      <trkpt lat="42.89763" lon="0.06768">
        <ele>1237.9</ele>
        <time>2024-07-30T22:03:37.027Z</time>
      </trkpt>
      <trkpt lat="42.8976" lon="0.06767">
        <ele>1238.3</ele>
        <time>2024-07-30T22:03:39.142Z</time>
      </trkpt>
      <trkpt lat="42.89745" lon="0.06747">
        <ele>1239.1</ele>
        <time>2024-07-30T22:03:49.649Z</time>
      </trkpt>
      <trkpt lat="42.89737" lon="0.06742">
        <ele>1242.3</ele>
        <time>2024-07-30T22:04:05.016Z</time>
      </trkpt>
      <trkpt lat="42.89733" lon="0.06742">
        <ele>1244.2</ele>
        <time>2024-07-30T22:04:14.346Z</time>
      </trkpt>
      <trkpt lat="42.89732" lon="0.06752">
        <ele>1246.5</ele>
        <time>2024-07-30T22:04:24.741Z</time>
      </trkpt>
      <trkpt lat="42.89734" lon="0.06767">
        <ele>1248.5</ele>
        <time>2024-07-30T22:04:33.940Z</time>
      </trkpt>
      <trkpt lat="42.89753" lon="0.06819">
        <ele>1250.2</ele>
        <time>2024-07-30T22:04:55.393Z</time>
      </trkpt>
      <trkpt lat="42.89761" lon="0.06852">
        <ele>1253.8</ele>
        <time>2024-07-30T22:05:13.602Z</time>
      </trkpt>
      <trkpt lat="42.89797" lon="0.0706">
        <ele>1276.4</ele>
        <time>2024-07-30T22:07:06.788Z</time>
      </trkpt>
      <trkpt lat="42.89804" lon="0.07143">
        <ele>1291.4</ele>
        <time>2024-07-30T22:08:12.251Z</time>
      </trkpt>
      <trkpt lat="42.89814" lon="0.07232">
        <ele>1306.2</ele>
        <time>2024-07-30T22:09:17.138Z</time>
      </trkpt>
      <trkpt lat="42.89811" lon="0.07272">
        <ele>1310.4</ele>
        <time>2024-07-30T22:09:38.295Z</time>
      </trkpt>
      <trkpt lat="42.89809" lon="0.0738">
        <ele>1320.1</ele>
        <time>2024-07-30T22:10:31.155Z</time>
      </trkpt>
      <trkpt lat="42.89806" lon="0.07401">
        <ele>1323.6</ele>
        <time>2024-07-30T22:10:46.507Z</time>
      </trkpt>
      <trkpt lat="42.89809" lon="0.07416">
        <ele>1322.7</ele>
        <time>2024-07-30T22:10:50.935Z</time>
      </trkpt>
      <trkpt lat="42.89804" lon="0.07482">
        <ele>1330.6</ele>
        <time>2024-07-30T22:11:28.533Z</time>
      </trkpt>
      <trkpt lat="42.89801" lon="0.07577">
        <ele>1339.2</ele>
        <time>2024-07-30T22:12:15.208Z</time>
      </trkpt>
      <trkpt lat="42.89801" lon="0.07668">
        <ele>1348.3</ele>
        <time>2024-07-30T22:13:02.036Z</time>
      </trkpt>
      <trkpt lat="42.89803" lon="0.07719">
        <ele>1354.7</ele>
        <time>2024-07-30T22:13:31.924Z</time>
      </trkpt>
      <trkpt lat="42.89802" lon="0.07747">
        <ele>1359.2</ele>
        <time>2024-07-30T22:13:51.706Z</time>
      </trkpt>
      <trkpt lat="42.89805" lon="0.07764">
        <ele>1359.8</ele>
        <time>2024-07-30T22:13:58.308Z</time>
      </trkpt>
      <trkpt lat="42.89797" lon="0.07794">
        <ele>1367.3</ele>
        <time>2024-07-30T22:14:32.537Z</time>
      </trkpt>
      <trkpt lat="42.89773" lon="0.07862">
        <ele>1382.5</ele>
        <time>2024-07-30T22:15:39.397Z</time>
      </trkpt>
      <trkpt lat="42.89774" lon="0.07881">
        <ele>1385.4</ele>
        <time>2024-07-30T22:15:52.249Z</time>
      </trkpt>
      <trkpt lat="42.89788" lon="0.07888">
        <ele>1384</ele>
        <time>2024-07-30T22:15:58.045Z</time>
      </trkpt>
      <trkpt lat="42.89826" lon="0.07898">
        <ele>1379.2</ele>
        <time>2024-07-30T22:16:13.090Z</time>
      </trkpt>
      <trkpt lat="42.89844" lon="0.07905">
        <ele>1376.3</ele>
        <time>2024-07-30T22:16:20.365Z</time>
      </trkpt>
      <trkpt lat="42.89886" lon="0.07928">
        <ele>1370.5</ele>
        <time>2024-07-30T22:16:37.958Z</time>
      </trkpt>
      <trkpt lat="42.89925" lon="0.07944">
        <ele>1367.1</ele>
        <time>2024-07-30T22:16:53.789Z</time>
      </trkpt>
      <trkpt lat="42.89964" lon="0.07965">
        <ele>1362.2</ele>
        <time>2024-07-30T22:17:10.086Z</time>
      </trkpt>
      <trkpt lat="42.89981" lon="0.0798">
        <ele>1358.7</ele>
        <time>2024-07-30T22:17:17.955Z</time>
      </trkpt>
      <trkpt lat="42.90006" lon="0.0802">
        <ele>1356.9</ele>
        <time>2024-07-30T22:17:32.929Z</time>
      </trkpt>
      <trkpt lat="42.90015" lon="0.0804">
        <ele>1357.4</ele>
        <time>2024-07-30T22:17:41.297Z</time>
      </trkpt>
      <trkpt lat="42.90037" lon="0.08113">
        <ele>1367.2</ele>
        <time>2024-07-30T22:18:27.213Z</time>
      </trkpt>
      <trkpt lat="42.90044" lon="0.08171">
        <ele>1376.4</ele>
        <time>2024-07-30T22:19:07.800Z</time>
      </trkpt>
      <trkpt lat="42.90066" lon="0.0824">
        <ele>1378.8</ele>
        <time>2024-07-30T22:19:35.907Z</time>
      </trkpt>
      <trkpt lat="42.90088" lon="0.0832">
        <ele>1386.6</ele>
        <time>2024-07-30T22:20:18.024Z</time>
      </trkpt>
      <trkpt lat="42.901" lon="0.08356">
        <ele>1388.3</ele>
        <time>2024-07-30T22:20:33.549Z</time>
      </trkpt>
      <trkpt lat="42.90111" lon="0.0838">
        <ele>1386.5</ele>
        <time>2024-07-30T22:20:41.611Z</time>
      </trkpt>
      <trkpt lat="42.90114" lon="0.08391">
        <ele>1386.7</ele>
        <time>2024-07-30T22:20:45.719Z</time>
      </trkpt>
      <trkpt lat="42.90129" lon="0.08466">
        <ele>1390.3</ele>
        <time>2024-07-30T22:21:16.699Z</time>
      </trkpt>
      <trkpt lat="42.90145" lon="0.08522">
        <ele>1389.3</ele>
        <time>2024-07-30T22:21:34.958Z</time>
      </trkpt>
      <trkpt lat="42.90152" lon="0.08555">
        <ele>1388.9</ele>
        <time>2024-07-30T22:21:45.610Z</time>
      </trkpt>
      <trkpt lat="42.90158" lon="0.08596">
        <ele>1391.9</ele>
        <time>2024-07-30T22:22:04.363Z</time>
      </trkpt>
      <trkpt lat="42.90175" lon="0.08675">
        <ele>1403.1</ele>
        <time>2024-07-30T22:22:55.320Z</time>
      </trkpt>
      <trkpt lat="42.90187" lon="0.08722">
        <ele>1407.4</ele>
        <time>2024-07-30T22:23:19.272Z</time>
      </trkpt>
      <trkpt lat="42.90206" lon="0.0877">
        <ele>1399.6</ele>
        <time>2024-07-30T22:23:34.809Z</time>
      </trkpt>
      <trkpt lat="42.90231" lon="0.08845">
        <ele>1391.4</ele>
        <time>2024-07-30T22:23:58.273Z</time>
      </trkpt>
      <trkpt lat="42.90236" lon="0.08852">
        <ele>1389.9</ele>
        <time>2024-07-30T22:24:01.058Z</time>
      </trkpt>
      <trkpt lat="42.90272" lon="0.08996">
        <ele>1390.9</ele>
        <time>2024-07-30T22:24:51.970Z</time>
      </trkpt>
      <trkpt lat="42.90275" lon="0.09021">
        <ele>1391.7</ele>
        <time>2024-07-30T22:25:01.418Z</time>
      </trkpt>
      <trkpt lat="42.90268" lon="0.09099">
        <ele>1401.5</ele>
        <time>2024-07-30T22:25:47.261Z</time>
      </trkpt>
      <trkpt lat="42.90268" lon="0.09122">
        <ele>1403.5</ele>
        <time>2024-07-30T22:25:58.360Z</time>
      </trkpt>
      <trkpt lat="42.90271" lon="0.09146">
        <ele>1404.3</ele>
        <time>2024-07-30T22:26:07.492Z</time>
        <extensions>
          <visugpx:TrkExtension xmlns:visugpx="https://www.visugpx.com/editgpx/">
            <visugpx:node>1</visugpx:node>
            </visugpx:TrkExtension>
        </extensions>
      </trkpt>
      <trkpt lat="42.903" lon="0.09274">
        <ele>1409.9</ele>
        <time>2024-07-30T22:26:59.802Z</time>
      </trkpt>
      <trkpt lat="42.90322" lon="0.09385">
        <ele>1415.1</ele>
        <time>2024-07-30T22:27:45.398Z</time>
      </trkpt>
      <trkpt lat="42.90333" lon="0.09477">
        <ele>1415.3</ele>
        <time>2024-07-30T22:28:16.010Z</time>
      </trkpt>
      <trkpt lat="42.90338" lon="0.09715">
        <ele>1426.6</ele>
        <time>2024-07-30T22:29:51.386Z</time>
      </trkpt>
      <trkpt lat="42.90357" lon="0.09918">
        <ele>1437</ele>
        <time>2024-07-30T22:31:14.631Z</time>
      </trkpt>
      <trkpt lat="42.90361" lon="0.09978">
        <ele>1439.7</ele>
        <time>2024-07-30T22:31:38.477Z</time>
      </trkpt>
      <trkpt lat="42.9036" lon="0.10006">
        <ele>1442.7</ele>
        <time>2024-07-30T22:31:53.417Z</time>
      </trkpt>
      <trkpt lat="42.90355" lon="0.10023">
        <ele>1444.8</ele>
        <time>2024-07-30T22:32:03.565Z</time>
      </trkpt>
      <trkpt lat="42.90351" lon="0.10031">
        <ele>1445.8</ele>
        <time>2024-07-30T22:32:08.630Z</time>
      </trkpt>
      <trkpt lat="42.90329" lon="0.10061">
        <ele>1448.3</ele>
        <time>2024-07-30T22:32:26.554Z</time>
      </trkpt>
      <trkpt lat="42.90322" lon="0.10081">
        <ele>1449.7</ele>
        <time>2024-07-30T22:32:36.100Z</time>
      </trkpt>
      <trkpt lat="42.90346" lon="0.10255">
        <ele>1454.9</ele>
        <time>2024-07-30T22:33:41.495Z</time>
      </trkpt>
      <trkpt lat="42.90358" lon="0.10298">
        <ele>1456.9</ele>
        <time>2024-07-30T22:33:59.596Z</time>
      </trkpt>
      <trkpt lat="42.90376" lon="0.10337">
        <ele>1460.3</ele>
        <time>2024-07-30T22:34:20.469Z</time>
      </trkpt>
      <trkpt lat="42.90395" lon="0.10358">
        <ele>1462.9</ele>
        <time>2024-07-30T22:34:35.884Z</time>
      </trkpt>
      <trkpt lat="42.90408" lon="0.10366">
        <ele>1464.4</ele>
        <time>2024-07-30T22:34:44.839Z</time>
      </trkpt>
      <trkpt lat="42.90426" lon="0.10365">
        <ele>1464.8</ele>
        <time>2024-07-30T22:34:53.417Z</time>
      </trkpt>
      <trkpt lat="42.90442" lon="0.10357">
        <ele>1464.6</ele>
        <time>2024-07-30T22:35:00.720Z</time>
      </trkpt>
      <trkpt lat="42.90448" lon="0.10352">
        <ele>1465.2</ele>
        <time>2024-07-30T22:35:04.841Z</time>
      </trkpt>
      <trkpt lat="42.90501" lon="0.10289">
        <ele>1472.1</ele>
        <time>2024-07-30T22:35:47.905Z</time>
      </trkpt>
      <trkpt lat="42.90516" lon="0.10269">
        <ele>1474.7</ele>
        <time>2024-07-30T22:36:01.981Z</time>
      </trkpt>
      <trkpt lat="42.90524" lon="0.10252">
        <ele>1476.1</ele>
        <time>2024-07-30T22:36:10.939Z</time>
      </trkpt>
      <trkpt lat="42.90529" lon="0.10229">
        <ele>1476.6</ele>
        <time>2024-07-30T22:36:19.474Z</time>
      </trkpt>
      <trkpt lat="42.90529" lon="0.10177">
        <ele>1477.9</ele>
        <time>2024-07-30T22:36:38.314Z</time>
      </trkpt>
      <trkpt lat="42.90534" lon="0.10165">
        <ele>1479.1</ele>
        <time>2024-07-30T22:36:44.974Z</time>
      </trkpt>
      <trkpt lat="42.90538" lon="0.1016">
        <ele>1479.8</ele>
        <time>2024-07-30T22:36:48.682Z</time>
      </trkpt>
      <trkpt lat="42.90542" lon="0.10158">
        <ele>1480.6</ele>
        <time>2024-07-30T22:36:52.311Z</time>
      </trkpt>
      <trkpt lat="42.90548" lon="0.10158">
        <ele>1481.8</ele>
        <time>2024-07-30T22:36:57.670Z</time>
      </trkpt>
      <trkpt lat="42.90552" lon="0.10161">
        <ele>1482.5</ele>
        <time>2024-07-30T22:37:01.081Z</time>
      </trkpt>
      <trkpt lat="42.90562" lon="0.10183">
        <ele>1485.9</ele>
        <time>2024-07-30T22:37:16.713Z</time>
      </trkpt>
      <trkpt lat="42.90566" lon="0.10203">
        <ele>1487.7</ele>
        <time>2024-07-30T22:37:26.711Z</time>
      </trkpt>
      <trkpt lat="42.90568" lon="0.10219">
        <ele>1488.9</ele>
        <time>2024-07-30T22:37:34.067Z</time>
      </trkpt>
      <trkpt lat="42.90568" lon="0.10259">
        <ele>1490.7</ele>
        <time>2024-07-30T22:37:49.911Z</time>
      </trkpt>
      <trkpt lat="42.90562" lon="0.10335">
        <ele>1494.7</ele>
        <time>2024-07-30T22:38:21.220Z</time>
      </trkpt>
      <trkpt lat="42.90557" lon="0.10372">
        <ele>1496.7</ele>
        <time>2024-07-30T22:38:36.689Z</time>
      </trkpt>
      <trkpt lat="42.9055" lon="0.10397">
        <ele>1497.6</ele>
        <time>2024-07-30T22:38:46.763Z</time>
      </trkpt>
      <trkpt lat="42.90526" lon="0.10435">
        <ele>1495.5</ele>
        <time>2024-07-30T22:39:01.050Z</time>
      </trkpt>
      <trkpt lat="42.90522" lon="0.10448">
        <ele>1495.5</ele>
        <time>2024-07-30T22:39:05.639Z</time>
      </trkpt>
      <trkpt lat="42.90523" lon="0.10454">
        <ele>1496.1</ele>
        <time>2024-07-30T22:39:08.766Z</time>
      </trkpt>
      <trkpt lat="42.90526" lon="0.10459">
        <ele>1497.4</ele>
        <time>2024-07-30T22:39:14.483Z</time>
      </trkpt>
      <trkpt lat="42.90529" lon="0.10463">
        <ele>1498.7</ele>
        <time>2024-07-30T22:39:20.353Z</time>
      </trkpt>
      <trkpt lat="42.90534" lon="0.10464">
        <ele>1500.1</ele>
        <time>2024-07-30T22:39:26.518Z</time>
      </trkpt>
      <trkpt lat="42.90539" lon="0.10463">
        <ele>1501.3</ele>
        <time>2024-07-30T22:39:31.759Z</time>
      </trkpt>
      <trkpt lat="42.9055" lon="0.10457">
        <ele>1503.4</ele>
        <time>2024-07-30T22:39:41.448Z</time>
      </trkpt>
      <trkpt lat="42.90555" lon="0.10451">
        <ele>1503.8</ele>
        <time>2024-07-30T22:39:45.032Z</time>
      </trkpt>
      <trkpt lat="42.90586" lon="0.10393">
        <ele>1509.8</ele>
        <time>2024-07-30T22:40:19.112Z</time>
      </trkpt>
      <trkpt lat="42.90599" lon="0.10362">
        <ele>1512.3</ele>
        <time>2024-07-30T22:40:34.999Z</time>
      </trkpt>
      <trkpt lat="42.90612" lon="0.10318">
        <ele>1513.8</ele>
        <time>2024-07-30T22:40:52.697Z</time>
      </trkpt>
      <trkpt lat="42.90633" lon="0.10267">
        <ele>1517.3</ele>
        <time>2024-07-30T22:41:17.505Z</time>
      </trkpt>
      <trkpt lat="42.90637" lon="0.10248">
        <ele>1517.1</ele>
        <time>2024-07-30T22:41:23.673Z</time>
      </trkpt>
      <trkpt lat="42.90637" lon="0.1021">
        <ele>1516.2</ele>
        <time>2024-07-30T22:41:34.890Z</time>
      </trkpt>
      <trkpt lat="42.9064" lon="0.10193">
        <ele>1517.3</ele>
        <time>2024-07-30T22:41:42.412Z</time>
      </trkpt>
      <trkpt lat="42.90643" lon="0.1019">
        <ele>1518.2</ele>
        <time>2024-07-30T22:41:46.340Z</time>
      </trkpt>
      <trkpt lat="42.90651" lon="0.10188">
        <ele>1520.8</ele>
        <time>2024-07-30T22:41:58.194Z</time>
      </trkpt>
      <trkpt lat="42.90655" lon="0.1019">
        <ele>1522.2</ele>
        <time>2024-07-30T22:42:04.638Z</time>
      </trkpt>
      <trkpt lat="42.90659" lon="0.10195">
        <ele>1523.5</ele>
        <time>2024-07-30T22:42:10.313Z</time>
      </trkpt>
      <trkpt lat="42.90661" lon="0.10202">
        <ele>1524.6</ele>
        <time>2024-07-30T22:42:15.227Z</time>
      </trkpt>
      <trkpt lat="42.90661" lon="0.1021">
        <ele>1525.1</ele>
        <time>2024-07-30T22:42:18.661Z</time>
      </trkpt>
      <trkpt lat="42.90652" lon="0.10275">
        <ele>1527.7</ele>
        <time>2024-07-30T22:42:44.199Z</time>
      </trkpt>
      <trkpt lat="42.90631" lon="0.10471">
        <ele>1539.2</ele>
        <time>2024-07-30T22:44:07.506Z</time>
      </trkpt>
      <trkpt lat="42.90631" lon="0.10549">
        <ele>1543</ele>
        <time>2024-07-30T22:44:38.930Z</time>
      </trkpt>
      <trkpt lat="42.90619" lon="0.10584">
        <ele>1544.8</ele>
        <time>2024-07-30T22:44:54.347Z</time>
      </trkpt>
      <trkpt lat="42.90617" lon="0.106">
        <ele>1545.2</ele>
        <time>2024-07-30T22:45:00.218Z</time>
      </trkpt>
      <trkpt lat="42.90637" lon="0.10714">
        <ele>1555.8</ele>
        <time>2024-07-30T22:45:57.750Z</time>
      </trkpt>
      <trkpt lat="42.90637" lon="0.1076">
        <ele>1559.3</ele>
        <time>2024-07-30T22:46:18.812Z</time>
      </trkpt>
      <trkpt lat="42.9064" lon="0.1084">
        <ele>1563.3</ele>
        <time>2024-07-30T22:46:51.263Z</time>
      </trkpt>
      <trkpt lat="42.90652" lon="0.10931">
        <ele>1570</ele>
        <time>2024-07-30T22:47:32.872Z</time>
      </trkpt>
      <trkpt lat="42.90664" lon="0.10985">
        <ele>1574.6</ele>
        <time>2024-07-30T22:47:59.393Z</time>
      </trkpt>
      <trkpt lat="42.9069" lon="0.11069">
        <ele>1581.2</ele>
        <time>2024-07-30T22:48:40.413Z</time>
      </trkpt>
      <trkpt lat="42.90723" lon="0.11202">
        <ele>1590.4</ele>
        <time>2024-07-30T22:49:41.563Z</time>
      </trkpt>
      <trkpt lat="42.90725" lon="0.11231">
        <ele>1591.5</ele>
        <time>2024-07-30T22:49:52.731Z</time>
      </trkpt>
      <trkpt lat="42.90727" lon="0.11336">
        <ele>1598.5</ele>
        <time>2024-07-30T22:50:38.714Z</time>
      </trkpt>
      <trkpt lat="42.90737" lon="0.11434">
        <ele>1604</ele>
        <time>2024-07-30T22:51:19.853Z</time>
      </trkpt>
      <trkpt lat="42.90739" lon="0.11476">
        <ele>1606.9</ele>
        <time>2024-07-30T22:51:38.476Z</time>
      </trkpt>
      <trkpt lat="42.90735" lon="0.11521">
        <ele>1611</ele>
        <time>2024-07-30T22:52:00.726Z</time>
      </trkpt>
      <trkpt lat="42.90722" lon="0.11586">
        <ele>1614.2</ele>
        <time>2024-07-30T22:52:27.719Z</time>
      </trkpt>
      <trkpt lat="42.90717" lon="0.116">
        <ele>1614.5</ele>
        <time>2024-07-30T22:52:33.222Z</time>
      </trkpt>
      <trkpt lat="42.90716" lon="0.11616">
        <ele>1616.1</ele>
        <time>2024-07-30T22:52:41.470Z</time>
      </trkpt>
      <trkpt lat="42.90718" lon="0.11622">
        <ele>1617.4</ele>
        <time>2024-07-30T22:52:47.173Z</time>
      </trkpt>
      <trkpt lat="42.90722" lon="0.11626">
        <ele>1619.1</ele>
        <time>2024-07-30T22:52:55.129Z</time>
      </trkpt>
      <trkpt lat="42.90728" lon="0.11627">
        <ele>1620.3</ele>
        <time>2024-07-30T22:53:00.496Z</time>
      </trkpt>
      <trkpt lat="42.90734" lon="0.11625">
        <ele>1621.1</ele>
        <time>2024-07-30T22:53:04.726Z</time>
      </trkpt>
      <trkpt lat="42.90763" lon="0.1159">
        <ele>1622.6</ele>
        <time>2024-07-30T22:53:24.159Z</time>
      </trkpt>
      <trkpt lat="42.90798" lon="0.11554">
        <ele>1624.8</ele>
        <time>2024-07-30T22:53:46.994Z</time>
      </trkpt>
      <trkpt lat="42.90804" lon="0.11552">
        <ele>1625.5</ele>
        <time>2024-07-30T22:53:50.985Z</time>
      </trkpt>
      <trkpt lat="42.90809" lon="0.11554">
        <ele>1626.5</ele>
        <time>2024-07-30T22:53:55.495Z</time>
      </trkpt>
      <trkpt lat="42.90813" lon="0.11558">
        <ele>1627.6</ele>
        <time>2024-07-30T22:54:00.323Z</time>
      </trkpt>
      <trkpt lat="42.90815" lon="0.11566">
        <ele>1628.8</ele>
        <time>2024-07-30T22:54:05.721Z</time>
      </trkpt>
      <trkpt lat="42.90815" lon="0.11575">
        <ele>1629.8</ele>
        <time>2024-07-30T22:54:10.618Z</time>
      </trkpt>
      <trkpt lat="42.90808" lon="0.11593">
        <ele>1631.2</ele>
        <time>2024-07-30T22:54:19.627Z</time>
      </trkpt>
      <trkpt lat="42.9079" lon="0.11625">
        <ele>1633.9</ele>
        <time>2024-07-30T22:54:37.313Z</time>
      </trkpt>
      <trkpt lat="42.90778" lon="0.11651">
        <ele>1635.7</ele>
        <time>2024-07-30T22:54:50.268Z</time>
      </trkpt>
      <trkpt lat="42.90756" lon="0.11709">
        <ele>1639.5</ele>
        <time>2024-07-30T22:55:17.753Z</time>
      </trkpt>
      <trkpt lat="42.90747" lon="0.11752">
        <ele>1642.5</ele>
        <time>2024-07-30T22:55:37.372Z</time>
      </trkpt>
      <trkpt lat="42.90733" lon="0.11837">
        <ele>1648</ele>
        <time>2024-07-30T22:56:14.889Z</time>
      </trkpt>
      <trkpt lat="42.90718" lon="0.11976">
        <ele>1658.1</ele>
        <time>2024-07-30T22:57:17.942Z</time>
      </trkpt>
      <trkpt lat="42.90709" lon="0.1209">
        <ele>1666.1</ele>
        <time>2024-07-30T22:58:08.885Z</time>
      </trkpt>
      <trkpt lat="42.90707" lon="0.12232">
        <ele>1675.5</ele>
        <time>2024-07-30T22:59:10.928Z</time>
      </trkpt>
      <trkpt lat="42.9071" lon="0.12305">
        <ele>1680.5</ele>
        <time>2024-07-30T22:59:43.201Z</time>
      </trkpt>
      <trkpt lat="42.90706" lon="0.12358">
        <ele>1683.5</ele>
        <time>2024-07-30T23:00:05.428Z</time>
      </trkpt>
      <trkpt lat="42.90704" lon="0.12444">
        <ele>1691</ele>
        <time>2024-07-30T23:00:46.988Z</time>
      </trkpt>
      <trkpt lat="42.90712" lon="0.12581">
        <ele>1700</ele>
        <time>2024-07-30T23:01:46.829Z</time>
      </trkpt>
      <trkpt lat="42.90712" lon="0.12619">
        <ele>1702.4</ele>
        <time>2024-07-30T23:02:03.194Z</time>
      </trkpt>
      <trkpt lat="42.90699" lon="0.12796">
        <ele>1712.8</ele>
        <time>2024-07-30T23:03:18.149Z</time>
      </trkpt>
      <trkpt lat="42.90695" lon="0.12887">
        <ele>1719.1</ele>
        <time>2024-07-30T23:03:58.525Z</time>
      </trkpt>
      <trkpt lat="42.90694" lon="0.1297">
        <ele>1725.6</ele>
        <time>2024-07-30T23:04:36.938Z</time>
      </trkpt>
      <trkpt lat="42.90687" lon="0.13002">
        <ele>1727.8</ele>
        <time>2024-07-30T23:04:51.506Z</time>
      </trkpt>
      <trkpt lat="42.90669" lon="0.13059">
        <ele>1729.3</ele>
        <time>2024-07-30T23:05:13.912Z</time>
      </trkpt>
      <trkpt lat="42.90663" lon="0.13093">
        <ele>1731.3</ele>
        <time>2024-07-30T23:05:28.561Z</time>
      </trkpt>
      <trkpt lat="42.90654" lon="0.13126">
        <ele>1731.8</ele>
        <time>2024-07-30T23:05:40.734Z</time>
      </trkpt>
      <trkpt lat="42.90646" lon="0.13143">
        <ele>1730.9</ele>
        <time>2024-07-30T23:05:46.487Z</time>
      </trkpt>
      <trkpt lat="42.90636" lon="0.13152">
        <ele>1729.8</ele>
        <time>2024-07-30T23:05:51.144Z</time>
      </trkpt>
      <trkpt lat="42.90607" lon="0.13162">
        <ele>1729.1</ele>
        <time>2024-07-30T23:06:03.521Z</time>
      </trkpt>
      <trkpt lat="42.906" lon="0.13163">
        <ele>1729.6</ele>
        <time>2024-07-30T23:06:07.452Z</time>
      </trkpt>
      <trkpt lat="42.9059" lon="0.13162">
        <ele>1730.1</ele>
        <time>2024-07-30T23:06:12.671Z</time>
      </trkpt>
      <trkpt lat="42.9058" lon="0.13156">
        <ele>1730</ele>
        <time>2024-07-30T23:06:17.390Z</time>
      </trkpt>
      <trkpt lat="42.9057" lon="0.13144">
        <ele>1729.7</ele>
        <time>2024-07-30T23:06:22.914Z</time>
      </trkpt>
      <trkpt lat="42.90561" lon="0.131">
        <ele>1732.4</ele>
        <time>2024-07-30T23:06:42.220Z</time>
      </trkpt>
      <trkpt lat="42.90546" lon="0.1306">
        <ele>1737.7</ele>
        <time>2024-07-30T23:07:07.537Z</time>
      </trkpt>
      <trkpt lat="42.90525" lon="0.13025">
        <ele>1740.4</ele>
        <time>2024-07-30T23:07:26.709Z</time>
      </trkpt>
      <trkpt lat="42.90507" lon="0.13014">
        <ele>1742.6</ele>
        <time>2024-07-30T23:07:39.374Z</time>
      </trkpt>
      <trkpt lat="42.90485" lon="0.13007">
        <ele>1745.3</ele>
        <time>2024-07-30T23:07:54.298Z</time>
      </trkpt>
      <trkpt lat="42.90478" lon="0.13003">
        <ele>1745.7</ele>
        <time>2024-07-30T23:07:58.285Z</time>
      </trkpt>
      <trkpt lat="42.90471" lon="0.12996">
        <ele>1746.2</ele>
        <time>2024-07-30T23:08:02.919Z</time>
      </trkpt>
      <trkpt lat="42.90459" lon="0.12977">
        <ele>1748.1</ele>
        <time>2024-07-30T23:08:14.386Z</time>
      </trkpt>
      <trkpt lat="42.90447" lon="0.12945">
        <ele>1749.4</ele>
        <time>2024-07-30T23:08:28.071Z</time>
      </trkpt>
      <trkpt lat="42.90436" lon="0.12902">
        <ele>1754.7</ele>
        <time>2024-07-30T23:08:53.524Z</time>
      </trkpt>
      <trkpt lat="42.90426" lon="0.12842">
        <ele>1755.3</ele>
        <time>2024-07-30T23:09:14.394Z</time>
      </trkpt>
      <trkpt lat="42.90422" lon="0.12758">
        <ele>1756.8</ele>
        <time>2024-07-30T23:09:43.952Z</time>
      </trkpt>
      <trkpt lat="42.90405" lon="0.12706">
        <ele>1760.1</ele>
        <time>2024-07-30T23:10:07.890Z</time>
      </trkpt>
      <trkpt lat="42.90411" lon="0.1267">
        <ele>1762.4</ele>
        <time>2024-07-30T23:10:23.727Z</time>
        <extensions>
          <visugpx:TrkExtension xmlns:visugpx="https://www.visugpx.com/editgpx/">
            <visugpx:node>2</visugpx:node>
            </visugpx:TrkExtension>
        </extensions>
      </trkpt>
      <trkpt lat="42.90413" lon="0.1266">
        <ele>1762.5</ele>
        <time>2024-07-30T23:10:27.241Z</time>
      </trkpt>
      <trkpt lat="42.9041" lon="0.12653">
        <ele>1763.1</ele>
        <time>2024-07-30T23:10:30.917Z</time>
      </trkpt>
      <trkpt lat="42.90404" lon="0.12645">
        <ele>1764.6</ele>
        <time>2024-07-30T23:10:37.819Z</time>
      </trkpt>
      <trkpt lat="42.90393" lon="0.12643">
        <ele>1767.6</ele>
        <time>2024-07-30T23:10:50.987Z</time>
      </trkpt>
      <trkpt lat="42.90386" lon="0.12646">
        <ele>1769.3</ele>
        <time>2024-07-30T23:10:58.420Z</time>
      </trkpt>
      <trkpt lat="42.90382" lon="0.12653">
        <ele>1770</ele>
        <time>2024-07-30T23:11:02.539Z</time>
      </trkpt>
      <trkpt lat="42.90372" lon="0.12686">
        <ele>1771</ele>
        <time>2024-07-30T23:11:15.650Z</time>
      </trkpt>
      <trkpt lat="42.90371" lon="0.127">
        <ele>1771.8</ele>
        <time>2024-07-30T23:11:21.533Z</time>
      </trkpt>
      <trkpt lat="42.90376" lon="0.12728">
        <ele>1772.6</ele>
        <time>2024-07-30T23:11:32.102Z</time>
      </trkpt>
      <trkpt lat="42.90376" lon="0.12736">
        <ele>1772.6</ele>
        <time>2024-07-30T23:11:34.706Z</time>
      </trkpt>
      <trkpt lat="42.90375" lon="0.12742">
        <ele>1773</ele>
        <time>2024-07-30T23:11:37.379Z</time>
      </trkpt>
      <trkpt lat="42.9036" lon="0.12776">
        <ele>1776.9</ele>
        <time>2024-07-30T23:11:57.627Z</time>
      </trkpt>
      <trkpt lat="42.90357" lon="0.12791">
        <ele>1780</ele>
        <time>2024-07-30T23:12:11.244Z</time>
      </trkpt>
      <trkpt lat="42.90357" lon="0.128">
        <ele>1780.8</ele>
        <time>2024-07-30T23:12:15.629Z</time>
      </trkpt>
      <trkpt lat="42.90364" lon="0.12831">
        <ele>1783</ele>
        <time>2024-07-30T23:12:29.910Z</time>
      </trkpt>
      <trkpt lat="42.90376" lon="0.1287">
        <ele>1785</ele>
        <time>2024-07-30T23:12:46.840Z</time>
      </trkpt>
      <trkpt lat="42.90378" lon="0.12883">
        <ele>1785.8</ele>
        <time>2024-07-30T23:12:52.484Z</time>
      </trkpt>
      <trkpt lat="42.90378" lon="0.12911">
        <ele>1788.1</ele>
        <time>2024-07-30T23:13:05.683Z</time>
      </trkpt>
      <trkpt lat="42.90373" lon="0.12944">
        <ele>1789.2</ele>
        <time>2024-07-30T23:13:18.311Z</time>
      </trkpt>
      <trkpt lat="42.90349" lon="0.13017">
        <ele>1794.7</ele>
        <time>2024-07-30T23:13:53.690Z</time>
      </trkpt>
      <trkpt lat="42.90336" lon="0.13067">
        <ele>1800.5</ele>
        <time>2024-07-30T23:14:22.297Z</time>
      </trkpt>
      <trkpt lat="42.90335" lon="0.13082">
        <ele>1801.2</ele>
        <time>2024-07-30T23:14:28.304Z</time>
      </trkpt>
      <trkpt lat="42.90341" lon="0.13117">
        <ele>1800.8</ele>
        <time>2024-07-30T23:14:39.472Z</time>
      </trkpt>
      <trkpt lat="42.90337" lon="0.13135">
        <ele>1800.3</ele>
        <time>2024-07-30T23:14:44.960Z</time>
      </trkpt>
      <trkpt lat="42.90329" lon="0.13149">
        <ele>1799.8</ele>
        <time>2024-07-30T23:14:50.108Z</time>
      </trkpt>
      <trkpt lat="42.90299" lon="0.13183">
        <ele>1799.7</ele>
        <time>2024-07-30T23:15:07.295Z</time>
      </trkpt>
      <trkpt lat="42.90276" lon="0.13218">
        <ele>1804.3</ele>
        <time>2024-07-30T23:15:31.230Z</time>
      </trkpt>
      <trkpt lat="42.90265" lon="0.13225">
        <ele>1807.8</ele>
        <time>2024-07-30T23:15:46.752Z</time>
      </trkpt>
      <trkpt lat="42.90249" lon="0.1323">
        <ele>1814.1</ele>
        <time>2024-07-30T23:16:17.790Z</time>
      </trkpt>
      <trkpt lat="42.90213" lon="0.13236">
        <ele>1818.7</ele>
        <time>2024-07-30T23:16:42.388Z</time>
      </trkpt>
      <trkpt lat="42.90203" lon="0.13239">
        <ele>1819.9</ele>
        <time>2024-07-30T23:16:49.097Z</time>
      </trkpt>
      <trkpt lat="42.90196" lon="0.13246">
        <ele>1820.8</ele>
        <time>2024-07-30T23:16:54.518Z</time>
      </trkpt>
      <trkpt lat="42.90193" lon="0.13258">
        <ele>1822.3</ele>
        <time>2024-07-30T23:17:01.674Z</time>
      </trkpt>
      <trkpt lat="42.90194" lon="0.13272">
        <ele>1823.5</ele>
        <time>2024-07-30T23:17:08.408Z</time>
      </trkpt>
      <trkpt lat="42.90197" lon="0.13281">
        <ele>1824.2</ele>
        <time>2024-07-30T23:17:12.823Z</time>
      </trkpt>
      <trkpt lat="42.90217" lon="0.1333">
        <ele>1828</ele>
        <time>2024-07-30T23:17:37.509Z</time>
      </trkpt>
      <trkpt lat="42.90221" lon="0.13349">
        <ele>1829.1</ele>
        <time>2024-07-30T23:17:45.731Z</time>
      </trkpt>
      <trkpt lat="42.90223" lon="0.13375">
        <ele>1830.9</ele>
        <time>2024-07-30T23:17:57.296Z</time>
      </trkpt>
      <trkpt lat="42.90227" lon="0.13389">
        <ele>1831.7</ele>
        <time>2024-07-30T23:18:03.477Z</time>
      </trkpt>
      <trkpt lat="42.90233" lon="0.13398">
        <ele>1832.7</ele>
        <time>2024-07-30T23:18:09.215Z</time>
      </trkpt>
      <trkpt lat="42.90238" lon="0.13402">
        <ele>1833</ele>
        <time>2024-07-30T23:18:12.250Z</time>
      </trkpt>
      <trkpt lat="42.90259" lon="0.13414">
        <ele>1834</ele>
        <time>2024-07-30T23:18:23.873Z</time>
      </trkpt>
      <trkpt lat="42.90269" lon="0.13431">
        <ele>1836</ele>
        <time>2024-07-30T23:18:34.642Z</time>
      </trkpt>
      <trkpt lat="42.90276" lon="0.13451">
        <ele>1838</ele>
        <time>2024-07-30T23:18:45.511Z</time>
      </trkpt>
      <trkpt lat="42.90279" lon="0.13468">
        <ele>1839.3</ele>
        <time>2024-07-30T23:18:53.451Z</time>
      </trkpt>
      <trkpt lat="42.90272" lon="0.13508">
        <ele>1843.5</ele>
        <time>2024-07-30T23:19:14.839Z</time>
      </trkpt>
      <trkpt lat="42.90273" lon="0.13525">
        <ele>1844.5</ele>
        <time>2024-07-30T23:19:22.031Z</time>
      </trkpt>
      <trkpt lat="42.90284" lon="0.1357">
        <ele>1847.2</ele>
        <time>2024-07-30T23:19:41.878Z</time>
      </trkpt>
      <trkpt lat="42.90287" lon="0.13597">
        <ele>1850.5</ele>
        <time>2024-07-30T23:19:57.494Z</time>
      </trkpt>
      <trkpt lat="42.90292" lon="0.13607">
        <ele>1851.7</ele>
        <time>2024-07-30T23:20:03.696Z</time>
      </trkpt>
      <trkpt lat="42.90297" lon="0.1361">
        <ele>1852.1</ele>
        <time>2024-07-30T23:20:06.769Z</time>
      </trkpt>
      <trkpt lat="42.90313" lon="0.13612">
        <ele>1852.2</ele>
        <time>2024-07-30T23:20:14.046Z</time>
      </trkpt>
      <trkpt lat="42.90329" lon="0.13619">
        <ele>1853.2</ele>
        <time>2024-07-30T23:20:23.074Z</time>
      </trkpt>
      <trkpt lat="42.90348" lon="0.13636">
        <ele>1854.6</ele>
        <time>2024-07-30T23:20:35.367Z</time>
      </trkpt>
      <trkpt lat="42.90357" lon="0.13651">
        <ele>1856.1</ele>
        <time>2024-07-30T23:20:44.299Z</time>
      </trkpt>
      <trkpt lat="42.90364" lon="0.13676">
        <ele>1859</ele>
        <time>2024-07-30T23:20:58.660Z</time>
      </trkpt>
      <trkpt lat="42.90368" lon="0.13684">
        <ele>1860</ele>
        <time>2024-07-30T23:21:03.725Z</time>
      </trkpt>
      <trkpt lat="42.90373" lon="0.1369">
        <ele>1860.7</ele>
        <time>2024-07-30T23:21:07.905Z</time>
      </trkpt>
      <trkpt lat="42.9038" lon="0.13695">
        <ele>1861.4</ele>
        <time>2024-07-30T23:21:12.589Z</time>
      </trkpt>
      <trkpt lat="42.90409" lon="0.13708">
        <ele>1864.1</ele>
        <time>2024-07-30T23:21:30.674Z</time>
      </trkpt>
      <trkpt lat="42.90432" lon="0.13714">
        <ele>1866.5</ele>
        <time>2024-07-30T23:21:45.241Z</time>
      </trkpt>
      <trkpt lat="42.90473" lon="0.1371">
        <ele>1869.4</ele>
        <time>2024-07-30T23:22:08.157Z</time>
      </trkpt>
      <trkpt lat="42.90486" lon="0.13713">
        <ele>1869.4</ele>
        <time>2024-07-30T23:22:14.015Z</time>
      </trkpt>
      <trkpt lat="42.90492" lon="0.13717">
        <ele>1870.1</ele>
        <time>2024-07-30T23:22:18.202Z</time>
      </trkpt>
      <trkpt lat="42.90498" lon="0.13722">
        <ele>1871.1</ele>
        <time>2024-07-30T23:22:23.245Z</time>
      </trkpt>
      <trkpt lat="42.90516" lon="0.13744">
        <ele>1872.1</ele>
        <time>2024-07-30T23:22:35.478Z</time>
      </trkpt>
      <trkpt lat="42.90538" lon="0.13788">
        <ele>1877.8</ele>
        <time>2024-07-30T23:23:03.868Z</time>
      </trkpt>
      <trkpt lat="42.90544" lon="0.13797">
        <ele>1879.6</ele>
        <time>2024-07-30T23:23:11.890Z</time>
      </trkpt>
      <trkpt lat="42.90558" lon="0.13812">
        <ele>1883</ele>
        <time>2024-07-30T23:23:27.240Z</time>
      </trkpt>
      <trkpt lat="42.90578" lon="0.13828">
        <ele>1885.4</ele>
        <time>2024-07-30T23:23:41.713Z</time>
      </trkpt>
      <trkpt lat="42.90604" lon="0.13841">
        <ele>1885.5</ele>
        <time>2024-07-30T23:23:54.152Z</time>
      </trkpt>
      <trkpt lat="42.9063" lon="0.13866">
        <ele>1889.8</ele>
        <time>2024-07-30T23:24:16.386Z</time>
      </trkpt>
      <trkpt lat="42.90642" lon="0.13871">
        <ele>1891.6</ele>
        <time>2024-07-30T23:24:25.427Z</time>
      </trkpt>
      <trkpt lat="42.90651" lon="0.13872">
        <ele>1893</ele>
        <time>2024-07-30T23:24:32.218Z</time>
      </trkpt>
      <trkpt lat="42.90667" lon="0.13869">
        <ele>1893.9</ele>
        <time>2024-07-30T23:24:40.788Z</time>
      </trkpt>
      <trkpt lat="42.90695" lon="0.13858">
        <ele>1895.9</ele>
        <time>2024-07-30T23:24:56.928Z</time>
      </trkpt>
      <trkpt lat="42.90712" lon="0.13857">
        <ele>1896.9</ele>
        <time>2024-07-30T23:25:06.049Z</time>
      </trkpt>
      <trkpt lat="42.90729" lon="0.1386">
        <ele>1899.6</ele>
        <time>2024-07-30T23:25:19.061Z</time>
      </trkpt>
      <trkpt lat="42.90741" lon="0.13857">
        <ele>1900.6</ele>
        <time>2024-07-30T23:25:26.131Z</time>
      </trkpt>
      <trkpt lat="42.90759" lon="0.13842">
        <ele>1901.5</ele>
        <time>2024-07-30T23:25:36.853Z</time>
      </trkpt>
      <trkpt lat="42.90776" lon="0.13819">
        <ele>1902.2</ele>
        <time>2024-07-30T23:25:48.507Z</time>
      </trkpt>
      <trkpt lat="42.90788" lon="0.13808">
        <ele>1904.3</ele>
        <time>2024-07-30T23:25:58.993Z</time>
      </trkpt>
      <trkpt lat="42.90829" lon="0.13783">
        <ele>1909.6</ele>
        <time>2024-07-30T23:26:28.502Z</time>
      </trkpt>
      <trkpt lat="42.90841" lon="0.1378">
        <ele>1910.8</ele>
        <time>2024-07-30T23:26:35.982Z</time>
      </trkpt>
      <trkpt lat="42.90887" lon="0.13781">
        <ele>1915.3</ele>
        <time>2024-07-30T23:27:04.138Z</time>
      </trkpt>
      <trkpt lat="42.90924" lon="0.13794">
        <ele>1919</ele>
        <time>2024-07-30T23:27:27.441Z</time>
      </trkpt>
      <trkpt lat="42.90945" lon="0.13799">
        <ele>1921.2</ele>
        <time>2024-07-30T23:27:40.734Z</time>
      </trkpt>
      <trkpt lat="42.90997" lon="0.13803">
        <ele>1924.9</ele>
        <time>2024-07-30T23:28:09.819Z</time>
      </trkpt>
      <trkpt lat="42.91016" lon="0.13806">
        <ele>1927.3</ele>
        <time>2024-07-30T23:28:22.728Z</time>
      </trkpt>
      <trkpt lat="42.91044" lon="0.13804">
        <ele>1928.6</ele>
        <time>2024-07-30T23:28:37.157Z</time>
      </trkpt>
      <trkpt lat="42.91058" lon="0.13806">
        <ele>1929.4</ele>
        <time>2024-07-30T23:28:44.654Z</time>
      </trkpt>
      <trkpt lat="42.91065" lon="0.13811">
        <ele>1929</ele>
        <time>2024-07-30T23:28:47.725Z</time>
      </trkpt>
      <trkpt lat="42.9107" lon="0.13818">
        <ele>1930</ele>
        <time>2024-07-30T23:28:52.813Z</time>
      </trkpt>
      <trkpt lat="42.91087" lon="0.1385">
        <ele>1937.3</ele>
        <time>2024-07-30T23:29:24.686Z</time>
      </trkpt>
      <trkpt lat="42.91092" lon="0.13856">
        <ele>1939.2</ele>
        <time>2024-07-30T23:29:33.095Z</time>
      </trkpt>
      <trkpt lat="42.91097" lon="0.13858">
        <ele>1939.4</ele>
        <time>2024-07-30T23:29:35.708Z</time>
      </trkpt>
      <trkpt lat="42.91101" lon="0.13857">
        <ele>1938.7</ele>
        <time>2024-07-30T23:29:37.289Z</time>
      </trkpt>
      <trkpt lat="42.91109" lon="0.13849">
        <ele>1935.2</ele>
        <time>2024-07-30T23:29:41.144Z</time>
      </trkpt>
      <trkpt lat="42.91122" lon="0.1383">
        <ele>1935</ele>
        <time>2024-07-30T23:29:49.337Z</time>
      </trkpt>
      <trkpt lat="42.91144" lon="0.13803">
        <ele>1936.3</ele>
        <time>2024-07-30T23:30:04.440Z</time>
      </trkpt>
      <trkpt lat="42.91157" lon="0.1379">
        <ele>1936.5</ele>
        <time>2024-07-30T23:30:11.880Z</time>
      </trkpt>
      <trkpt lat="42.91164" lon="0.13787">
        <ele>1938</ele>
        <time>2024-07-30T23:30:18.548Z</time>
      </trkpt>
      <trkpt lat="42.91182" lon="0.13784">
        <ele>1938.9</ele>
        <time>2024-07-30T23:30:27.980Z</time>
      </trkpt>
      <trkpt lat="42.91201" lon="0.13787">
        <ele>1941.8</ele>
        <time>2024-07-30T23:30:42.184Z</time>
      </trkpt>
      <trkpt lat="42.91221" lon="0.13785">
        <ele>1942.3</ele>
        <time>2024-07-30T23:30:51.816Z</time>
      </trkpt>
      <trkpt lat="42.91242" lon="0.13775">
        <ele>1943</ele>
        <time>2024-07-30T23:31:02.723Z</time>
      </trkpt>
      <trkpt lat="42.91251" lon="0.13768">
        <ele>1942.9</ele>
        <time>2024-07-30T23:31:07.191Z</time>
      </trkpt>
      <trkpt lat="42.91258" lon="0.13762">
        <ele>1943.5</ele>
        <time>2024-07-30T23:31:11.830Z</time>
      </trkpt>
      <trkpt lat="42.9127" lon="0.13744">
        <ele>1942.3</ele>
        <time>2024-07-30T23:31:18.760Z</time>
      </trkpt>
      <trkpt lat="42.91284" lon="0.13712">
        <ele>1939.6</ele>
        <time>2024-07-30T23:31:29.373Z</time>
      </trkpt>
      <trkpt lat="42.91294" lon="0.13694">
        <ele>1938.5</ele>
        <time>2024-07-30T23:31:35.805Z</time>
      </trkpt>
      <trkpt lat="42.91306" lon="0.13682">
        <ele>1940.1</ele>
        <time>2024-07-30T23:31:45.224Z</time>
      </trkpt>
      <trkpt lat="42.91315" lon="0.13678">
        <ele>1940.1</ele>
        <time>2024-07-30T23:31:49.429Z</time>
      </trkpt>
      <trkpt lat="42.91327" lon="0.13678">
        <ele>1940.4</ele>
        <time>2024-07-30T23:31:55.194Z</time>
      </trkpt>
      <trkpt lat="42.91332" lon="0.13681">
        <ele>1941</ele>
        <time>2024-07-30T23:31:58.681Z</time>
      </trkpt>
      <trkpt lat="42.91335" lon="0.13685">
        <ele>1941.5</ele>
        <time>2024-07-30T23:32:01.448Z</time>
      </trkpt>
      <trkpt lat="42.91339" lon="0.13695">
        <ele>1942.7</ele>
        <time>2024-07-30T23:32:07.469Z</time>
      </trkpt>
      <trkpt lat="42.9134" lon="0.13703">
        <ele>1944.5</ele>
        <time>2024-07-30T23:32:15.543Z</time>
      </trkpt>
      <trkpt lat="42.91337" lon="0.13714">
        <ele>1947.1</ele>
        <time>2024-07-30T23:32:27.202Z</time>
      </trkpt>
      <trkpt lat="42.91328" lon="0.13723">
        <ele>1949</ele>
        <time>2024-07-30T23:32:36.089Z</time>
      </trkpt>
      <trkpt lat="42.91303" lon="0.13737">
        <ele>1952.5</ele>
        <time>2024-07-30T23:32:54.595Z</time>
      </trkpt>
      <trkpt lat="42.91297" lon="0.13742">
        <ele>1952.3</ele>
        <time>2024-07-30T23:32:57.460Z</time>
      </trkpt>
      <trkpt lat="42.9129" lon="0.13751">
        <ele>1952.7</ele>
        <time>2024-07-30T23:33:02.332Z</time>
      </trkpt>
      <trkpt lat="42.91262" lon="0.13802">
        <ele>1960.5</ele>
        <time>2024-07-30T23:33:39.067Z</time>
      </trkpt>
      <trkpt lat="42.91248" lon="0.13817">
        <ele>1962.5</ele>
        <time>2024-07-30T23:33:50.529Z</time>
      </trkpt>
      <trkpt lat="42.91238" lon="0.13824">
        <ele>1963.7</ele>
        <time>2024-07-30T23:33:57.626Z</time>
      </trkpt>
      <trkpt lat="42.91218" lon="0.13834">
        <ele>1965.2</ele>
        <time>2024-07-30T23:34:09.495Z</time>
      </trkpt>
      <trkpt lat="42.91191" lon="0.13841">
        <ele>1966.9</ele>
        <time>2024-07-30T23:34:24.378Z</time>
      </trkpt>
      <trkpt lat="42.91175" lon="0.1385">
        <ele>1967.5</ele>
        <time>2024-07-30T23:34:32.952Z</time>
      </trkpt>
      <trkpt lat="42.91165" lon="0.13864">
        <ele>1970.1</ele>
        <time>2024-07-30T23:34:44.860Z</time>
      </trkpt>
      <trkpt lat="42.91146" lon="0.13901">
        <ele>1973.2</ele>
        <time>2024-07-30T23:35:04.826Z</time>
      </trkpt>
      <trkpt lat="42.91132" lon="0.13936">
        <ele>1979.1</ele>
        <time>2024-07-30T23:35:31.119Z</time>
      </trkpt>
      <trkpt lat="42.91124" lon="0.13947">
        <ele>1980.3</ele>
        <time>2024-07-30T23:35:38.261Z</time>
      </trkpt>
      <trkpt lat="42.91119" lon="0.1395">
        <ele>1980.1</ele>
        <time>2024-07-30T23:35:40.434Z</time>
      </trkpt>
      <trkpt lat="42.91113" lon="0.13951">
        <ele>1978.6</ele>
        <time>2024-07-30T23:35:42.784Z</time>
      </trkpt>
      <trkpt lat="42.91095" lon="0.1395">
        <ele>1980.9</ele>
        <time>2024-07-30T23:35:55.039Z</time>
      </trkpt>
      <trkpt lat="42.9105" lon="0.13938">
        <ele>1984.7</ele>
        <time>2024-07-30T23:36:21.692Z</time>
      </trkpt>
      <trkpt lat="42.9102" lon="0.13933">
        <ele>1987.4</ele>
        <time>2024-07-30T23:36:39.653Z</time>
      </trkpt>
      <trkpt lat="42.90986" lon="0.13937">
        <ele>1992.5</ele>
        <time>2024-07-30T23:37:04.793Z</time>
      </trkpt>
      <trkpt lat="42.90942" lon="0.13933">
        <ele>1995.1</ele>
        <time>2024-07-30T23:37:28.444Z</time>
      </trkpt>
      <trkpt lat="42.90921" lon="0.13937">
        <ele>1999</ele>
        <time>2024-07-30T23:37:46.237Z</time>
      </trkpt>
      <trkpt lat="42.90903" lon="0.13945">
        <ele>2001.4</ele>
        <time>2024-07-30T23:37:59.074Z</time>
      </trkpt>
      <trkpt lat="42.90879" lon="0.13964">
        <ele>2004.6</ele>
        <time>2024-07-30T23:38:17.132Z</time>
      </trkpt>
      <trkpt lat="42.90848" lon="0.14004">
        <ele>2009.3</ele>
        <time>2024-07-30T23:38:44.393Z</time>
      </trkpt>
      <trkpt lat="42.90812" lon="0.14034">
        <ele>2012.4</ele>
        <time>2024-07-30T23:39:08.142Z</time>
      </trkpt>
      <trkpt lat="42.90795" lon="0.1406">
        <ele>2016</ele>
        <time>2024-07-30T23:39:26.372Z</time>
      </trkpt>
      <trkpt lat="42.90763" lon="0.141">
        <ele>2020.5</ele>
        <time>2024-07-30T23:39:53.478Z</time>
      </trkpt>
      <trkpt lat="42.90746" lon="0.14128">
        <ele>2022.3</ele>
        <time>2024-07-30T23:40:08.181Z</time>
      </trkpt>
      <trkpt lat="42.90737" lon="0.14152">
        <ele>2024.3</ele>
        <time>2024-07-30T23:40:20.414Z</time>
      </trkpt>
      <trkpt lat="42.90724" lon="0.14202">
        <ele>2027.1</ele>
        <time>2024-07-30T23:40:42.190Z</time>
      </trkpt>
      <trkpt lat="42.90719" lon="0.14236">
        <ele>2028</ele>
        <time>2024-07-30T23:40:54.806Z</time>
      </trkpt>
      <trkpt lat="42.90719" lon="0.14247">
        <ele>2028.7</ele>
        <time>2024-07-30T23:40:59.554Z</time>
      </trkpt>
      <trkpt lat="42.90722" lon="0.14263">
        <ele>2029.9</ele>
        <time>2024-07-30T23:41:06.993Z</time>
      </trkpt>
      <trkpt lat="42.90739" lon="0.14303">
        <ele>2035.2</ele>
        <time>2024-07-30T23:41:32.606Z</time>
      </trkpt>
      <trkpt lat="42.90746" lon="0.14328">
        <ele>2037.9</ele>
        <time>2024-07-30T23:41:46.438Z</time>
      </trkpt>
      <trkpt lat="42.90749" lon="0.14359">
        <ele>2041.4</ele>
        <time>2024-07-30T23:42:03.522Z</time>
      </trkpt>
      <trkpt lat="42.90748" lon="0.14369">
        <ele>2042.7</ele>
        <time>2024-07-30T23:42:09.536Z</time>
      </trkpt>
      <trkpt lat="42.90743" lon="0.14384">
        <ele>2044.4</ele>
        <time>2024-07-30T23:42:18.151Z</time>
      </trkpt>
      <trkpt lat="42.90739" lon="0.1439">
        <ele>2045</ele>
        <time>2024-07-30T23:42:21.828Z</time>
      </trkpt>
      <trkpt lat="42.90722" lon="0.14402">
        <ele>2046.1</ele>
        <time>2024-07-30T23:42:32.042Z</time>
      </trkpt>
      <trkpt lat="42.90698" lon="0.14424">
        <ele>2051</ele>
        <time>2024-07-30T23:42:54.999Z</time>
      </trkpt>
      <trkpt lat="42.9068" lon="0.14435">
        <ele>2053.5</ele>
        <time>2024-07-30T23:43:08.372Z</time>
      </trkpt>
      <trkpt lat="42.90643" lon="0.14454">
        <ele>2055.7</ele>
        <time>2024-07-30T23:43:29.344Z</time>
      </trkpt>
      <trkpt lat="42.90633" lon="0.14463">
        <ele>2056.1</ele>
        <time>2024-07-30T23:43:35.254Z</time>
      </trkpt>
      <trkpt lat="42.90623" lon="0.14479">
        <ele>2056.9</ele>
        <time>2024-07-30T23:43:43.327Z</time>
      </trkpt>
      <trkpt lat="42.90608" lon="0.14516">
        <ele>2058.7</ele>
        <time>2024-07-30T23:43:59.895Z</time>
      </trkpt>
      <trkpt lat="42.90593" lon="0.14571">
        <ele>2065.8</ele>
        <time>2024-07-30T23:44:33.478Z</time>
      </trkpt>
      <trkpt lat="42.9058" lon="0.146">
        <ele>2070.9</ele>
        <time>2024-07-30T23:44:56.143Z</time>
      </trkpt>
      <trkpt lat="42.90565" lon="0.14624">
        <ele>2074.7</ele>
        <time>2024-07-30T23:45:14.147Z</time>
      </trkpt>
      <trkpt lat="42.90552" lon="0.14638">
        <ele>2076</ele>
        <time>2024-07-30T23:45:23.629Z</time>
      </trkpt>
      <trkpt lat="42.90545" lon="0.14642">
        <ele>2076</ele>
        <time>2024-07-30T23:45:27.001Z</time>
      </trkpt>
      <trkpt lat="42.90525" lon="0.14649">
        <ele>2074.1</ele>
        <time>2024-07-30T23:45:35.027Z</time>
      </trkpt>
      <trkpt lat="42.9052" lon="0.14653">
        <ele>2074.4</ele>
        <time>2024-07-30T23:45:38.063Z</time>
      </trkpt>
      <trkpt lat="42.90517" lon="0.14662">
        <ele>2076.5</ele>
        <time>2024-07-30T23:45:47.386Z</time>
      </trkpt>
      <trkpt lat="42.90518" lon="0.14666">
        <ele>2077.8</ele>
        <time>2024-07-30T23:45:54.068Z</time>
      </trkpt>
      <trkpt lat="42.90521" lon="0.14669">
        <ele>2079.2</ele>
        <time>2024-07-30T23:46:00.901Z</time>
      </trkpt>
      <trkpt lat="42.90529" lon="0.1467">
        <ele>2080.6</ele>
        <time>2024-07-30T23:46:07.397Z</time>
      </trkpt>
      <trkpt lat="42.90553" lon="0.1466">
        <ele>2083.2</ele>
        <time>2024-07-30T23:46:23.068Z</time>
      </trkpt>
      <trkpt lat="42.90573" lon="0.14648">
        <ele>2086.7</ele>
        <time>2024-07-30T23:46:39.820Z</time>
      </trkpt>
      <trkpt lat="42.90601" lon="0.14613">
        <ele>2088.7</ele>
        <time>2024-07-30T23:46:59.764Z</time>
      </trkpt>
      <trkpt lat="42.90615" lon="0.14598">
        <ele>2090.4</ele>
        <time>2024-07-30T23:47:10.570Z</time>
      </trkpt>
      <trkpt lat="42.90621" lon="0.14592">
        <ele>2090.7</ele>
        <time>2024-07-30T23:47:14.323Z</time>
      </trkpt>
      <trkpt lat="42.90655" lon="0.14567">
        <ele>2097.2</ele>
        <time>2024-07-30T23:47:44.853Z</time>
      </trkpt>
      <trkpt lat="42.90666" lon="0.14555">
        <ele>2098.5</ele>
        <time>2024-07-30T23:47:53.308Z</time>
      </trkpt>
      <trkpt lat="42.90682" lon="0.14531">
        <ele>2098.8</ele>
        <time>2024-07-30T23:48:04.290Z</time>
      </trkpt>
      <trkpt lat="42.90687" lon="0.14526">
        <ele>2098.9</ele>
        <time>2024-07-30T23:48:07.185Z</time>
      </trkpt>
      <trkpt lat="42.90699" lon="0.1452">
        <ele>2101</ele>
        <time>2024-07-30T23:48:17.138Z</time>
      </trkpt>
      <trkpt lat="42.90721" lon="0.14515">
        <ele>2104.5</ele>
        <time>2024-07-30T23:48:34.031Z</time>
      </trkpt>
      <trkpt lat="42.90746" lon="0.14513">
        <ele>2108.4</ele>
        <time>2024-07-30T23:48:52.915Z</time>
      </trkpt>
      <trkpt lat="42.90758" lon="0.14515">
        <ele>2110.2</ele>
        <time>2024-07-30T23:49:01.802Z</time>
      </trkpt>
      <trkpt lat="42.90772" lon="0.1452">
        <ele>2112.7</ele>
        <time>2024-07-30T23:49:13.437Z</time>
      </trkpt>
      <trkpt lat="42.90783" lon="0.14521">
        <ele>2113.7</ele>
        <time>2024-07-30T23:49:20.020Z</time>
      </trkpt>
      <trkpt lat="42.90808" lon="0.14513">
        <ele>2114</ele>
        <time>2024-07-30T23:49:31.849Z</time>
      </trkpt>
      <trkpt lat="42.90819" lon="0.14512">
        <ele>2114.5</ele>
        <time>2024-07-30T23:49:37.503Z</time>
      </trkpt>
      <trkpt lat="42.90827" lon="0.14516">
        <ele>2115.2</ele>
        <time>2024-07-30T23:49:42.444Z</time>
      </trkpt>
      <trkpt lat="42.90837" lon="0.14527">
        <ele>2116.1</ele>
        <time>2024-07-30T23:49:49.592Z</time>
      </trkpt>
      <trkpt lat="42.9085" lon="0.14552">
        <ele>2117.9</ele>
        <time>2024-07-30T23:50:02.525Z</time>
        <extensions>
          <visugpx:TrkExtension xmlns:visugpx="https://www.visugpx.com/editgpx/">
            <visugpx:node>3</visugpx:node>
            </visugpx:TrkExtension>
        </extensions>
      </trkpt>
    </trkseg>
  </trk>
</gpx>